Weather Roundup
Issued by NWS Corpus Christi, TX

Home | Current Version | Previous Version | Text Only | Print | Product List | Glossary On
Versions: 1 2 3 4 5 6 7 8 9 10 11 12 13 14 15 16 17 18 19 20 21 22 23 24 25 26 27 28 29 30 31 32 33 34 35 36 37 38 39 40 41 42 43 44 45 46 47 48 49 50
000
ASUS44 KCRP 010610
HRRCRP

SOUTH TEXAS REGIONAL WEATHER ROUNDUP
NATIONAL WEATHER SERVICE CORPUS CHRISTI TX
100 AM CDT SAT NOV 01 2014


TXZ229>244-010700-
...CORPUS CHRISTI AREA OBSERVATIONS...

CITY           SKY/WX    TMP DP  RH WIND       PRES   REMARKS
CORPUS CHRISTI CLEAR     64  47  53 NE15      30.26S
NAS CORPUS CHR CLEAR     66  50  56 NE20      30.25S
ROCKPORT       CLEAR     62  44  51 N13       30.27S
KINGSVILLE NAS CLEAR     58  52  80 N5        30.27S
ALICE          CLEAR     59  48  67 NE7       30.27S
FALFURRIAS     CLEAR     59  49  71 N6        30.26S
$$

...VICTORIA AREA OBSERVATIONS...

CITY           SKY/WX    TMP DP  RH WIND       PRES   REMARKS
VICTORIA       CLEAR     55  43  63 N8        30.29S
BEEVILLE       FAIR      59  44  56 NE9       30.28F
PLEASANTON     CLEAR     56  44  61 N6        30.31S
SAN ANTONIO    CLEAR     57  42  57 NE7       30.32S
$$

...LAREDO AREA OBSERVATIONS...

CITY           SKY/WX    TMP DP  RH WIND       PRES   REMARKS
LAREDO         CLEAR     62  47  58 NE8       30.29S
COTULLA        CLEAR     61  45  55 E10       30.29S
DEL RIO        CLEAR     60  41  49 E8        30.27F
MCALLEN        CLEAR     64  56  75 N3        30.24F
HEBBRONVILLE   CLEAR     58  46  66 N5        30.28S
$$

...OTHER TEXAS OBSERVATIONS...

CITY           SKY/WX    TMP DP  RH WIND       PRES   REMARKS
BROWNSVILLE    CLEAR     63  55  75 N6        30.22F
HOUSTON        CLEAR     55  45  68 N7        30.29R
COL. STATION   CLEAR     50  42  74 N8        30.32S
AUSTIN         CLEAR     53  41  63 N10       30.33R
WACO           CLEAR     44  38  79 N7        30.34F
FORT WORTH     PTCLDY    47  29  49 NE12      30.37R
WICHITA FALLS  CLEAR     41  29  62 NE8       30.37F
LUBBOCK        PTCLDY    39  31  72 SE8       30.34F
EL PASO        MOCLDY    63  35  35 VRB5      30.20F
$$

...MARINE OBSERVATIONS...

STATION/POSITION TIME  SKY/WX   TEMP    WIND        PRES    VSBY  WAVE   SWELL
                                AIR SEA DIR/SP/G                  HT/PER HT/PER
                 (UTC)          (F)     (DEG/KT/KT) (MB)    (MI)  (FT/S) (FT/S)
PORT ARANSAS     0600            66 77  360/ 17/ 20 1025.2R
BUOY 90 E PORT A 0600            72 79   30/ 17/ 21 1023.6S         5/ 6
BUOY 45 SE BAFFI 0600            75 80   30/ 17/ 23 1022.6F         4/ 5
BUOY 200 E PT IS 0600            75 80   30/ 19/ 23 1020.8F         5/ 6
BUOY 15 E GALVES 0600            66 76   30/ 19/ 25 1023.7R         4/ 5
$$



USA.gov is the U.S. government's official web portal to all federal, state and local government web resources and services.